DECAYED

STARLINK-1397, 45682 (Decayed)

Orbit data source: Space-Track

STARLINK-1397, 45682 was a payload satellite owned by SpaceX/Seattle (US) in LEO that was launched on Thu, 04 Jun 2020 UTC via an FALCON 9 launch vehicle from the Air Force Eastern Test Range (AFETR). Payload-class satellites include a variety of spacecraft equipped with specific instruments for various scientific and technological missions. These include communications satellites like Starlink; space stations such as the ISS; scientific satellites like the Hubble; Earth observation satellites from companies like Planet Labs, Umbra, and HawkEye 360; GPS; miniature CubeSats for education and research; and military/defense satellites.

Not visible in the next 10 days
Identifier
45682, 2020-035AB
Orbit
Decayed
Last TLE update
4 days ago
Origin
Manufacturer
SpaceX/Seattle
Mission
Decayed Commercial Communications
Bus & Motor
STARLINK, Unknown motor
Mass
260 kg wet, ~248 kg dry
Launch date (UTC)
2020-06-04 (5 years ago)
Launch vehicle
FALCON 9
Launch site
Air Force Eastern Test Range (AFETR)
Object type
Payload
Rocket body
Debris
Shape & HBR
Box + 1 Pan, 8.86 m
Radar Cross Section
13.562 m², Large (>1 m²)

Expand to show TLE details & history

TLE from 4 days ago
0 STARLINK-1397
1 45682U 20035AB  25124.99854205  .29151974  12376-4  20965-2 0  9996
2 45682  53.0394 305.6604 0012108 275.5601 217.8355 16.39806504272726
Epoch: 2025-05-04T23:57Z
Definitive object data (Epoch: 2025-05-04T23:57:54.033Z)
Latitude
35.67145°
Longitude
-129.4152°
Altitude
175.265 km
Speed
7.802 km/s
True Right ascension
06h 12m 42s
True Declination
35° 29' 39"
Sunlit
Object was in daylight at TLE epoch
Visualization observer readout
Visualization observer readout
Orbital elements
Apogee altitude
174.53 km
Perigee altitude
158.681 km
Semi-major axis
6,544.743 km
Eccentricity
0.0012108
Inclination
53.0394°
RAAN
305.6604°
Arg. of periapsis
275.5601°
True anomaly
217.75049°
Mean anomaly
217.8355°
Eccentric anomaly
217.79299°
Mean motion
4.09925 °/min
BSTAR
0.0020965
Orbital period
87.82 mins
Loading maneuver chart data...
Loading SW <> Apogee altitude chart data...

STARLINK-1397 Visibility forecast

Observer location: undefined°, undefined°

This satellite is decayed
Span
Click to sort rows by Start time (UTC) header in descending order
Start Az.
Max El. time (UTC)
Max El. Az.
Max El.
End time (UTC)
End Az.
|